User: anonymous   Login
Location: Unspecified
(0.0000°N, 0.0000°E)
Time: 22:06:31
(UTC+01:00)
Language:

deb Ariane - Orbit

View from above orbital plane
View from above orbital plane
View from above satellite
View from above satellite

Ground track
Ground track

The orbit data is extracted from the following two-line orbital elements,

1 25668U 92060E   14327.24466913  .01219601 -47566-6  81800-3 0  7506
2 25668 007.4900 028.1096 4820162 271.4192 094.6709 06.15888375255114
Epoch (UTC): 23 November 2014 05:52:19
Eccentricity: 0.4820162
inclination: 7.4900°
perigee height: 134 km
apogee height: 12253 km
right ascension of ascending node: 28.1096°
argument of perigee: 271.4192°
revolutions per day: 6.15888375
mean anomaly at epoch: 94.6709°
orbit number at epoch: 25511

The dashed part of the orbit path shows where the satellite is in the earth's shadow,  

DLR